Follow iAlert.com on twitter @ialertcom
Search For Active Alerts in Your Area  
  Hi Guest:  [ Sign-up / Services ] [ Login ]

Current weather by "City, St" or "zip code"  
 

Advertise Here

Current Conditions: Philadelphia, Northeast Philadelphia Airport, PA

A Few Clouds


47.0 F

Last Updated on Nov 18 2018, 4:54 pm EST
Humidity: 54%
Wind Speed: N 0.0 mph
Barometer 30.28 in
Dewpoint: 30.9 F
Visibility: 10.00 mi
Precip: --
Heat Index: NA
Wind Chill: NA
Current conditions at:

Philadelphia, Northeast Philadelphia Airport, PA (KPNE)

Lat: 40.07 Lon: 75.013

Local Radar Image active severe weather and emergency alerts image image weather storm and storm spotter reports image weather observation monitoring service image
Local
Radar
Active
Alerts
Storm Reports Obs
Monitoring

iAlert Weather and Emergency Alert Notification Services:


ialert severe weather and emergency alerts by text message and email ialert daily weather forecast by email and text message service ialert real-time weather-observation monitoring and alert notification service ialert storm report monitoring alert notification

Observation History for Philadelphia, Northeast Philadelphia Airport, PA


Time Wind
(mph)
Vis
(mi)
Weather Precip (in) Temperature (F) Relative
Humidity
Wind
Chill
(°F)
Heat
Index
(°F)
Pressure
Air Dwpt altimeter
(in)
sea level
(mb)
4:54 pm EST N 0.0 10.00 A Few Clouds -- 47.0 30.9 54% NA NA 30.28 1025.4
3:54 pm EST SE 4.6 10.00 Overcast -- 48.0 30.9 52% 46 NA 30.28 1025.6
2:54 pm EST SE 3.5 10.00 Overcast -- 49.0 30.0 48% NA NA 30.30 1025.9
1:54 pm EST SW 4.6 10.00 Overcast -- 48.0 30.0 50% 46 NA 30.31 1026.6
12:54 pm EST SE 3.5 10.00 Mostly Cloudy -- 47.0 30.0 52% NA NA 30.33 1027.1
11:54 am EST SE 5.8 10.00 Overcast -- 46.0 28.9 51% 43 NA 30.36 1028.2
10:54 am EST E 8.1 10.00 Overcast -- 45.0 30.9 58% 41 NA 30.39 1029.1
9:54 am EST E 6.9 10.00 Overcast -- 42.0 30.0 62% 38 NA 30.40 1029.6
8:54 am EST N 0.0 10.00 Overcast -- 40.0 33.1 77% NA NA 30.40 1029.6
7:54 am EST N 0.0 10.00 Mostly Cloudy -- 35.0 30.0 82% NA NA 30.40 1029.5
6:54 am EST N 0.0 9.00 Fair -- 32.0 28.0 85% NA NA 30.39 1029.2
5:54 am EST N 0.0 10.00 A Few Clouds -- 34.0 28.0 79% NA NA 30.37 1028.6
4:54 am EST N 0.0 10.00 Fair -- 34.0 28.0 79% NA NA 30.36 1028.2
3:54 am EST N 0.0 10.00 Fair -- 35.0 28.9 78% NA NA 30.35 1027.8
2:54 am EST NW 3.5 10.00 Fair -- 36.0 28.9 76% NA NA 30.34 1027.6
1:54 am EST NW 4.6 10.00 Fair -- 39.0 30.0 70% 36 NA 30.33 1027.3
12:54 am EST W 5.8 10.00 Fair -- 37.0 28.9 73% 32 NA 30.33 1027.1
11:54 pm EST W 3.5 10.00 Fair -- 39.0 28.9 67% NA NA 30.33 1027.2
10:54 pm EST W 4.6 10.00 Fair -- 41.0 28.9 62% 38 NA 30.33 1027.0
9:54 pm EST W 4.6 10.00 Overcast -- 41.0 28.9 62% 38 NA 30.32 1026.8
8:54 pm EST W 5.8 10.00 Overcast -- 42.0 30.9 65% 38 NA 30.31 1026.4
7:54 pm EST W 4.6 10.00 Fair -- 42.0 28.9 60% 39 NA 30.30 1026.0
6:54 pm EST W 3.5 10.00 Overcast -- 44.0 30.0 58% NA NA 30.29 1025.8
5:54 pm EST W 4.6 10.00 Overcast -- 43.0 30.0 60% 40 NA 30.27 1025.2

Regional Weather Observation


Doylestown, Doylestown Airport, PA (KDYL)

Overcast
40.0 F

Quakertown Airport, PA (KUKT)

Mostly Cloudy
39.0 F

Pottstown, Pottstown Limerick Airport, PA (KPTW)

Overcast
42.0 F

Allentown Queen City Municipal Airport, PA (KXLL)

Overcast
39.0 F

Allentown, Lehigh Valley International Airport, PA (KABE)

Overcast
40.0 F

Trenton, Mercer County Airport, NJ (KTTN)

Overcast
43.0 F

Advertise Here